Provo, UT

4:18 AM MST on December 11, 2019 (GMT -0700)
Provo Municipal

Weather History for KPVU - November, 2019

Change the Weather History Date:

Thursday, November 21, 2019

  Actual Average Record
Temperature  
Mean Temperature 41 °F -  
Max Temperature 46 °F 43 °F 64 °F (1996)
Min Temperature 35 °F 27 °F 17 °F (2018)
Degree Days  
Heating Degree Days 24    
Moisture  
Dew Point 34 °F    
Average Humidity 79    
Maximum Humidity 93    
Minimum Humidity 60    
Precipitation  
Precipitation 0.19 in - - ()
Sea Level Pressure  
Sea Level Pressure 29.90 in    
Wind  
Wind Speed 7 mph (North)    
Max Wind Speed 21 mph    
Max Gust Speed -    
Visibility 9 miles    
Events Rain    
Averages and records for this station are not official NWS values.
T = Trace of Precipitation, MM = Missing Value Source: NWS Daily Summary

Daily Weather History Graph

Daily Weather History Graph

Search for Another Location

Airport or City:

Astronomy

Nov. 21, 2019 Rise Set
Actual Time 7:19 AM MST 5:05 PM MST
Civil Twilight 6:49 AM MST 5:35 PM MST
Nautical Twilight 6:16 AM MST 6:08 PM MST
Astronomical Twilight 5:44 AM MST 6:40 PM MST
Moon 1:18 AM MST (11/21) 2:37 PM MST (11/21)
Length of Visible Light 10h 45m
Length of Day
9h 46m
Waning Crescent, 29% of the Moon is Illuminated
Nov 21
Waning Crescent
Nov 26
New
Dec 3
First Quarter
Dec 11
Full
Dec 18
Last Quarter

Hourly Weather History & Observations

Time (MST) Temp. Windchill Dew Point Humidity Pressure Visibility Wind Dir Wind Speed Gust Speed Precip Events Conditions
12:56 AM 42.1 °F 35.7 °F 33.1 °F 70% 29.71 in 10.0 mi NNW 11.5 mph - N/A   Scattered Clouds
1:56 AM 41.0 °F 35.2 °F 39.0 °F 93% 29.73 in 8.0 mi NE 9.2 mph - 0.01 in Rain Light Rain
2:56 AM 39.9 °F 30.2 °F 33.1 °F 77% 29.72 in 10.0 mi NNW 20.7 mph - 0.01 in   Overcast
3:56 AM 41.0 °F 38.0 °F 34.0 °F 76% 29.72 in 10.0 mi North 4.6 mph - N/A   Overcast
4:56 AM 39.9 °F 36.7 °F 35.1 °F 83% 29.75 in 10.0 mi East 4.6 mph - 0.00 in   Overcast
5:11 AM 39.2 °F - 35.6 °F 87% 29.78 in 10.0 mi Calm Calm - N/A   Overcast
5:56 AM 39.9 °F 36.7 °F 37.0 °F 89% 29.79 in 10.0 mi West 4.6 mph - N/A   Overcast
6:56 AM 39.9 °F 37.8 °F 36.0 °F 86% 29.84 in 5.0 mi SSW 3.5 mph - 0.02 in Rain Rain
7:13 AM 39.2 °F - 37.4 °F 93% 29.85 in 6.0 mi Calm Calm - 0.02 in Rain Light Rain
7:39 AM 39.2 °F 35.9 °F 37.4 °F 93% 29.86 in 3.0 mi NNE 4.6 mph - 0.05 in Rain Light Rain
7:51 AM 39.2 °F 35.9 °F 37.4 °F 93% 29.86 in 5.0 mi North 4.6 mph - 0.06 in Rain Light Rain
7:56 AM 39.0 °F 36.8 °F 37.0 °F 93% 29.85 in 5.0 mi NNE 3.5 mph - 0.07 in Rain Light Rain
8:56 AM 39.0 °F 34.8 °F 37.0 °F 93% 29.90 in 10.0 mi NE 5.8 mph - 0.03 in Rain Light Rain
9:05 AM 39.2 °F 34.2 °F 37.4 °F 93% 29.91 in 8.0 mi ENE 6.9 mph - 0.00 in Rain Light Rain
9:56 AM 37.9 °F 32.1 °F 36.0 °F 93% 29.93 in 10.0 mi NE 8.1 mph - 0.04 in Rain Light Rain
10:15 AM 39.2 °F 33.0 °F 35.6 °F 87% 29.94 in 10.0 mi NE 9.2 mph - 0.00 in Rain Light Rain
10:56 AM 39.9 °F 33.9 °F 36.0 °F 86% 29.94 in 10.0 mi NNE 9.2 mph - 0.01 in   Overcast
11:56 AM 42.1 °F 38.4 °F 35.1 °F 76% 29.92 in 10.0 mi North 5.8 mph - N/A   Mostly Cloudy
12:56 PM 44.1 °F - 34.0 °F 68% 29.90 in 10.0 mi Calm Calm - N/A   Mostly Cloudy
1:56 PM 46.0 °F 43.1 °F 34.0 °F 63% 29.88 in 10.0 mi SW 5.8 mph - N/A   Mostly Cloudy
2:56 PM 46.9 °F - 36.0 °F 66% 29.90 in 10.0 mi SW 5.8 mph - N/A   Mostly Cloudy
3:56 PM 45.0 °F 43.5 °F 36.0 °F 71% 29.92 in 10.0 mi SW 3.5 mph - N/A   Mostly Cloudy
4:56 PM 43.0 °F 41.3 °F 34.0 °F 71% 29.95 in 10.0 mi NW 3.5 mph - N/A   Mostly Cloudy
5:56 PM 39.9 °F 33.9 °F 30.0 °F 68% 29.98 in 10.0 mi NNE 9.2 mph - N/A   Scattered Clouds
6:38 PM 41.0 °F 33.9 °F 28.4 °F 61% 29.99 in 10.0 mi NNE 12.7 mph - N/A   Mostly Cloudy
6:56 PM 41.0 °F 34.3 °F 28.9 °F 62% 30.00 in 10.0 mi North 11.5 mph - N/A   Partly Cloudy
7:56 PM 41.0 °F 35.2 °F 28.0 °F 60% 30.02 in 10.0 mi NNE 9.2 mph - N/A   Scattered Clouds
8:56 PM 37.9 °F 33.5 °F 28.0 °F 68% 30.06 in 10.0 mi NNW 5.8 mph - N/A   Scattered Clouds
9:56 PM 39.0 °F 36.8 °F 28.0 °F 65% 30.08 in 10.0 mi NW 3.5 mph - N/A   Clear
10:56 PM 36.0 °F 30.3 °F 30.0 °F 79% 30.09 in 10.0 mi SSE 6.9 mph - N/A   Clear
11:56 PM 35.1 °F 31.0 °F 30.0 °F 82% 30.10 in 10.0 mi SSE 4.6 mph - N/A   Clear